Regional Weather Roundup
Issued by NWS Lake Charles, LA

Home | Current Version | Previous Version | Text Only | Print | Product List | Glossary On
Versions: 1 2 3 4 5 6 7 8 9 10 11 12 13 14 15 16 17 18 19 20 21 22 23 24 25 26 27 28 29 30 31 32 33 34 35 36 37 38 39 40 41 42 43 44 45 46 47 48 49 50
781
ASUS44 KLCH 231910
RWRLCH
REGIONAL WEATHER ROUNDUP
NATIONAL WEATHER SERVICE LAKE CHARLES LA
200 PM CDT SAT SEP 23 2017

Note: "fair" indicates few or no clouds below 12,000 feet with no
significant weather and/or obstructions to visibility.


ACROSS SOUTHEAST TEXAS

CITY           SKY/WX    TMP DP  RH WIND       PRES   REMARKS
BEAUMONT       NOT AVBL
BEAUMONT CITY  FAIR      88  71  57 SE12G18   29.92F
ORANGE         PTCLDY    88  72  60 E7        29.94F
JASPER         MOSUNNY   89  72  57 E3        29.96F
$$

ACROSS CENTRAL LOUISIANA

CITY           SKY/WX    TMP DP  RH WIND       PRES   REMARKS
LEESVILLE      MOSUNNY   90  69  50 E7        29.92F
FULLERTON      FAIR      92  70  48 CALM      29.91F
ALEXANDRIA INT MOSUNNY   91  66  43 VRB6      29.92
ESLER FIELD    NOT AVBL
DERIDDER       FAIR      90  67  47 SE8       29.96F
OAKDALE        PTCLDY    89  70  52 CALM      29.93F
OPELOUSAS      FAIR      88  68  50 SE7       29.93F
$$

ACROSS SOUTHWEST AND SOUTH CENTRAL LOUISIANA

CITY           SKY/WX    TMP DP  RH WIND       PRES   REMARKS
SULPHUR        PTCLDY    92  69  45 E5        29.93F
LAKE CHARLES   MOSUNNY   91  70  49 SE14      29.92F
CHENNAULT INT  NOT AVBL
CAMERON PHI      N/A     86  73  66 SE9       29.91F
DEQUINCY       FAIR      88  69  53 NE3       29.93F
JENNINGS       MOCLDY    89  70  52 NE8       29.93F
LAFAYETTE      PTSUNNY   90  70  51 VRB5      29.93F
NEW IBERIA     NOT AVBL
ABBEVILLE      MOCLDY    88  72  58 CALM      29.93F
PATTERSON      NOT AVBL
SALT POINT       N/A     89  70  53 SE8       29.91F
$$

SELECTED SITES ACROSS THE REGION

CITY           SKY/WX    TMP DP  RH WIND       PRES   REMARKS
HOUSTON BUSH   MOSUNNY   89  70  53 SE13      29.91F
HOUSTON HOBBY  PTSUNNY   90  72  55 E12       29.90F
GALVESTON      MOSUNNY   90  75  62 E10       29.92  HX 100
COLLEGE STAT   MOSUNNY   90  70  51 SE6G17    29.91
CONROE         PTSUNNY   88  72  58 E7        29.92F
HUNTSVILLE     NOT AVBL
LUFKIN         NOT AVBL
SHREVEPORT     MOSUNNY   93  69  45 E14       29.93
MONROE         PTSUNNY   91  68  46 E5        29.95F
NATCHEZ MS     PTSUNNY   89  70  53 NE7       29.96F
BATON ROUGE    MOSUNNY   90  68  48 VRB6      29.93F
N.O. INTL ARPT MOSUNNY   89  70  53 NE13G21   29.93F
SLIDELL        NOT AVBL
$$

MARINE REPORTS

STATION/POSITION TIME  SKY/WX   TEMP    WIND        PRES    VSBY
                                AIR SEA DIR/SP/G
                 (UTC)          (F)     (DEG/KT/KT) (MB)    (MI)
BUOY 30 S HIGH I 1750            82 84  100/ 10/ 12 1013.6
WVE H/P(F/S)=  2/ 6

SEA RIM ST PARK  1800            85     140/  8/ 11 1014.4F
PORT ARTHUR      1836            83 83   80/  5/  8 1013.7F
SABINE PASS N    1836            84 85  150/ 11/ 14 1014.9F
TEXAS POINT      NOT AVBL
CALCASIEU PASS   1836            84 85  170/  8/ 11 1012.5F
LK CHARLES BEACH 1836            90 81              1012.9F
MARSH ISLAND     1800            83                   N/A
FRESH WATER LOCK 1836            84 87  120/  8/ 12 1013.7F
AMERADA PASS     1836            86 83  110/  4/ 10 1013.4F
$$




USA.gov is the U.S. government's official web portal to all federal, state and local government web resources and services.